WNISAT-1

Last updated on Sat Aug 30 2025 00:03:47 GMT+0000 (Coordinated Universal Time)

1 39423U 13066H 25241.27808875 .00001199 00000+0 22808-3 0 9998 2 39423 97.6858 46.9564 0166371 71.4855 290.4342 14.57266977624206
UTC large
Height (km)
Speed (km/s)
/
Latitude / Longitude
Inclination (degrees)
Orbital Period (minutes)
Azimuth
Elevation
Range (km)
Doppler Factor

Next 0 passes for location: London (51.5072 / 0.1276)

Sorry there are no passes over London.